EW9763 Weather Reports


Display with metric or nautical units.
time (UTC)temp
F
wind
direction
speed
MPH
gust
MPH
rain 1hr
in
rain 24hr
in
rain mn
in
humidity
%
barometer
mb
20260831233954 85 199 4.0 8.0 0.00 0.06 0.06 77 1010.0
20260831233454 86 193 4.0 8.0 0.00 0.06 0.06 76 1009.9
20260831232946 86 172 3.0 7.0 0.00 0.06 0.06 76 1009.9
20260831232444 86 190 3.0 6.0 0.00 0.06 0.06 76 1010.0
20260831231944 86 191 2.0 6.0 0.00 0.06 0.06 75 1009.9
20260831231443 86 177 2.0 4.0 0.00 0.06 0.06 75 1010.0
20260831231216 86 192 2.0 4.0 0.00 0.06 0.06 74 1010.0
20260831230442 86 192 1.0 3.0 0.00 0.06 0.06 74 1009.8
20260831225938 86 190 0.0 2.0 0.00 0.06 0.06 74 1009.7
20260831225438 86 189 1.0 2.0 0.00 0.06 0.06 74 1009.6
20260831224935 86 180 2.0 5.0 0.00 0.06 0.06 74 1009.5
20260831224436 87 178 3.0 6.0 0.00 0.06 0.06 73 1009.5
20260831223933 87 156 4.0 9.0 0.00 0.06 0.06 73 1009.6
20260831223435 87 170 4.0 9.0 0.00 0.06 0.06 73 1009.7
20260831222932 87 180 4.0 8.0 0.00 0.06 0.06 73 1009.8
20260831222430 87 172 4.0 7.0 0.00 0.06 0.06 72 1009.9
20260831222201 87 189 4.0 7.0 0.00 0.06 0.06 72 1009.9
20260831221703 88 175 3.0 7.0 0.00 0.06 0.06 72 1009.8
20260831220931 88 196 2.0 7.0 0.00 0.06 0.06 71 1009.8
20260831220700 88 195 2.0 6.0 0.00 0.06 0.06 71 1009.8
20260831215930 88 180 3.0 7.0 0.00 0.06 0.06 71 1009.9
20260831215425 88 170 4.0 7.0 0.00 0.06 0.06 70 1009.9
20260831214922 89 182 4.0 9.0 0.00 0.06 0.06 70 1010.0
20260831214422 89 168 4.0 10.0 0.00 0.06 0.06 69 1010.0
20260831213925 89 252 4.0 11.0 0.00 0.06 0.06 68 1009.9
20260831213921 89 198 4.0 11.0 0.00 0.06 0.06 69 1009.9
20260831212921 90 187 4.0 10.0 0.00 0.06 0.06 68 1009.9
20260831212417 90 186 4.0 10.0 0.00 0.06 0.06 67 1009.8
20260831211915 90 194 4.0 12.0 0.00 0.06 0.06 66 1009.8
20260831211416 91 169 3.0 12.0 0.00 0.06 0.06 65 1009.8
20260831210915 91 232 3.0 8.0 0.00 0.06 0.06 66 1009.7
20260831210417 91 169 4.0 8.0 0.00 0.06 0.06 66 1009.7
20260831205915 91 189 5.0 9.0 0.00 0.06 0.06 66 1009.6
20260831205415 90 206 5.0 9.0 0.00 0.06 0.06 67 1009.5
20260831204914 91 170 4.0 9.0 0.00 0.06 0.06 67 1009.6
20260831204413 91 242 3.0 8.0 0.00 0.06 0.06 65 1009.6
20260831203917 91 178 4.0 9.0 0.00 0.06 0.06 67 1009.7
20260831203412 90 177 4.0 9.0 0.00 0.06 0.06 67 1009.6
20260831202909 90 182 4.0 11.0 0.00 0.06 0.06 67 1009.7
20260831202411 89 149 4.0 11.0 0.00 0.06 0.06 66 1009.6
20260831201906 90 215 3.0 8.0 0.00 0.06 0.06 67 1009.7
20260831201405 90 248 3.0 6.0 0.00 0.06 0.06 67 1009.7
20260831200908 89 148 5.0 11.0 0.00 0.06 0.06 69 1009.6
20260831200406 89 224 6.0 13.0 0.00 0.06 0.06 68 1009.8
20260831195904 89 186 5.0 13.0 0.00 0.06 0.06 67 1009.8
20260831195405 90 186 3.0 8.0 0.00 0.06 0.06 67 1009.9
20260831194859 90 213 3.0 7.0 0.00 0.06 0.06 66 1009.9
20260831194401 89 152 3.0 7.0 0.00 0.06 0.06 66 1009.8
20260831193857 89 203 3.0 7.0 0.00 0.06 0.06 66 1009.8
20260831193357 89 173 4.0 9.0 0.00 0.06 0.06 67 1009.9
20260831192857 89 244 4.0 9.0 0.00 0.06 0.06 68 1009.9
20260831192358 88 225 3.0 6.0 0.00 0.06 0.06 68 1009.9
20260831192122 88 185 4.0 11.0 0.00 0.06 0.06 67 1009.9
20260831191352 89 198 4.0 11.0 0.00 0.06 0.06 68 1010.0
20260831190851 89 182 4.0 8.0 0.00 0.06 0.06 67 1010.0
20260831190351 89 169 3.0 9.0 0.00 0.06 0.06 67 1010.1
20260831185851 89 225 5.0 10.0 0.00 0.06 0.06 67 1010.2
20260831185623 88 177 5.0 14.0 0.00 0.06 0.06 68 1010.2
20260831184849 87 207 4.0 14.0 0.00 0.06 0.06 68 1010.2
20260831184347 88 172 4.0 8.0 0.00 0.06 0.06 67 1010.3
20260831183849 88 186 3.0 9.0 0.00 0.06 0.06 67 1010.1
20260831183348 88 226 3.0 9.0 0.00 0.06 0.06 66 1010.1
20260831182846 87 199 3.0 9.0 0.00 0.06 0.06 69 1010.1
20260831182346 87 180 4.0 12.0 0.00 0.06 0.06 68 1010.1
20260831181841 87 242 4.0 12.0 0.00 0.06 0.06 66 1010.2
20260831181615 87 181 3.0 9.0 0.00 0.06 0.06 67 1010.1
20260831180843 87 190 3.0 9.0 0.00 0.06 0.06 69 1010.1
20260831180341 87 240 3.0 9.0 0.00 0.06 0.06 67 1010.1
20260831175840 87 228 3.0 7.0 0.00 0.06 0.06 69 1010.1
20260831175340 86 233 4.0 7.0 0.00 0.06 0.06 69 1010.2
20260831174834 87 217 4.0 9.0 0.00 0.06 0.06 69 1010.2
20260831174609 86 188 3.0 9.0 0.00 0.06 0.06 69 1010.3
20260831174105 85 203 3.0 10.0 0.00 0.06 0.06 70 1010.3
20260831173334 85 229 4.0 10.0 0.00 0.06 0.06 69 1010.3
20260831172833 85 184 4.0 10.0 0.00 0.06 0.06 70 1010.4
20260831172334 84 247 3.0 10.0 0.00 0.06 0.06 70 1010.5
20260831172059 84 188 4.0 10.0 0.00 0.06 0.06 70 1010.4
20260831171327 84 181 4.0 9.0 0.00 0.06 0.06 70 1010.4
20260831170827 85 222 4.0 8.0 0.00 0.06 0.06 70 1010.4
20260831170327 84 236 4.0 10.0 0.00 0.06 0.06 71 1010.4
20260831165827 84 229 5.0 10.0 0.00 0.06 0.06 72 1010.5
20260831165328 84 201 5.0 10.0 0.00 0.06 0.06 70 1010.4
20260831164825 84 246 5.0 11.0 0.00 0.06 0.06 71 1010.4
20260831164325 84 168 5.0 11.0 0.00 0.06 0.06 70 1010.5
20260831163825 84 177 5.0 11.0 0.00 0.06 0.06 70 1010.6
20260831163325 83 269 4.0 10.0 0.00 0.06 0.06 71 1010.5
20260831163057 83 193 4.0 10.0 0.00 0.06 0.06 72 1010.5
20260831162331 83 165 5.0 10.0 0.00 0.06 0.06 72 1010.5
20260831162325 83 179 4.0 10.0 0.00 0.06 0.06 71 1010.5
20260831161554 83 242 4.0 10.0 0.00 0.06 0.06 72 1010.6
20260831160823 83 194 3.0 8.0 0.00 0.06 0.06 71 1010.7
20260831160819 83 196 3.0 8.0 0.00 0.06 0.06 72 1010.6
20260831155819 83 212 4.0 9.0 0.00 0.06 0.06 72 1010.8
20260831155320 82 215 5.0 13.0 0.00 0.06 0.06 73 1010.9
20260831154820 82 200 5.0 13.0 0.00 0.06 0.06 73 1010.8
20260831154317 82 265 5.0 12.0 0.00 0.06 0.06 73 1010.7
20260831153817 82 209 6.0 12.0 0.00 0.06 0.06 73 1010.7
20260831153314 82 192 5.0 12.0 0.00 0.06 0.06 73 1010.6
20260831152815 81 202 4.0 11.0 0.00 0.06 0.06 73 1010.7
20260831152315 81 209 5.0 10.0 0.00 0.06 0.06 74 1010.8
20260831151815 81 161 5.0 15.0 0.00 0.06 0.06 73 1010.7
20260831151316 81 188 5.0 15.0 0.00 0.06 0.06 73 1010.7
20260831150815 80 192 6.0 14.0 0.00 0.06 0.06 74 1010.6
20260831150811 81 218 6.0 14.0 0.00 0.06 0.06 74 1010.6
20260831145807 80 223 5.0 12.0 0.00 0.06 0.06 74 1010.8
20260831145307 80 232 5.0 12.0 0.00 0.06 0.06 73 1010.7
20260831144808 80 280 6.0 12.0 0.00 0.06 0.06 74 1010.5
20260831144307 80 188 6.0 12.0 0.00 0.06 0.06 73 1010.6
20260831143803 80 227 4.0 12.0 0.00 0.06 0.06 75 1010.5
20260831143303 79 229 5.0 12.0 0.00 0.06 0.06 78 1010.6
20260831142803 79 200 6.0 12.0 0.00 0.06 0.06 79 1010.6
20260831142305 79 170 5.0 12.0 0.00 0.06 0.06 79 1010.6
20260831141803 78 211 5.0 12.0 0.00 0.06 0.06 81 1010.6
20260831141304 78 188 4.0 9.0 0.00 0.06 0.06 82 1010.6
20260831141035 77 192 4.0 9.0 0.00 0.06 0.06 81 1010.8
20260831140536 77 168 3.0 9.0 0.00 0.06 0.06 82 1010.9
20260831135802 77 157 3.0 10.0 0.00 0.06 0.06 84 1010.9
20260831135306 76 173 3.0 10.0 0.00 0.06 0.06 84 1011.0
20260831134804 76 162 3.0 9.0 0.00 0.06 0.06 87 1010.9
20260831134303 75 143 4.0 10.0 0.00 0.06 0.06 87 1010.8
20260831133802 75 136 3.0 10.0 0.00 0.06 0.06 89 1010.7
20260831133304 74 136 4.0 9.0 0.00 0.06 0.06 90 1010.7
20260831132758 74 138 5.0 10.0 0.00 0.06 0.06 90 1010.6
20260831132300 73 141 4.0 10.0 0.00 0.06 0.06 90 1010.6
20260831131759 73 162 4.0 9.0 0.00 0.06 0.06 90 1010.5
20260831131259 73 139 4.0 9.0 0.00 0.06 0.06 90 1010.6
20260831130759 73 155 4.0 7.0 0.00 0.06 0.06 91 1010.7
20260831130301 73 123 3.0 7.0 0.00 0.06 0.06 91 1010.9
20260831125756 72 143 3.0 7.0 0.00 0.06 0.06 91 1011.0
20260831125255 72 147 3.0 7.0 0.00 0.06 0.06 91 1010.9
20260831124754 72 132 4.0 8.0 0.00 0.06 0.06 91 1010.9
20260831124255 72 135 3.0 8.0 0.00 0.06 0.06 91 1010.9
20260831123755 72 136 2.0 9.0 0.00 0.06 0.06 91 1010.9
20260831123527 72 150 3.0 8.0 0.00 0.06 0.06 91 1010.9
20260831122751 72 170 4.0 10.0 0.00 0.06 0.06 91 1010.9
20260831122251 72 161 5.0 10.0 0.00 0.06 0.06 91 1010.7
20260831121753 72 140 6.0 10.0 0.00 0.06 0.06 91 1010.7
20260831121251 72 126 5.0 11.0 0.00 0.06 0.06 92 1010.7
20260831120752 72 159 6.0 12.0 0.00 0.06 0.06 92 1010.6
20260831120251 71 142 6.0 13.0 0.00 0.06 0.06 93 1010.7
20260831115724 71 138 6.0 11.0 0.00 0.06 0.06 93 1010.7
20260831115223 71 123 5.0 10.0 0.00 0.06 0.06 93 1010.6
20260831114725 71 155 4.0 10.0 0.00 0.06 0.06 94 1010.7
20260831114216 71 132 3.0 10.0 0.00 0.06 0.06 94 1010.8
20260831113710 71 144 3.0 10.0 0.00 0.06 0.06 95 1010.8
20260831113443 71 136 3.0 7.0 0.00 0.06 0.06 95 1010.7
20260831112712 71 195 3.0 7.0 0.00 0.06 0.06 95 1010.7
20260831112441 71 161 3.0 8.0 0.01 0.06 0.06 95 1010.7
20260831111709 70 132 2.0 8.0 0.01 0.06 0.06 95 1010.7
20260831111209 70 136 3.0 8.0 0.01 0.06 0.06 95 1010.8
20260831110706 70 135 4.0 8.0 0.01 0.06 0.06 96 1010.9
20260831110207 70 134 4.0 8.0 0.01 0.06 0.06 96 1010.9
20260831105937 70 121 4.0 8.0 0.01 0.06 0.06 96 1010.9
20260831105205 70 134 4.0 7.0 0.01 0.06 0.06 96 1011.0
20260831104937 70 134 3.0 7.0 0.01 0.06 0.06 96 1010.9
20260831104206 70 121 2.0 6.0 0.01 0.06 0.06 96 1011.0
20260831103705 70 110 4.0 7.0 0.01 0.06 0.06 96 1011.1
20260831103200 70 114 4.0 7.0 0.01 0.06 0.06 96 1011.0
20260831102701 70 94 4.0 8.0 0.01 0.06 0.06 96 1011.0
20260831102201 70 80 3.0 8.0 0.03 0.05 0.05 96 1011.1
20260831101931 70 58 3.0 6.0 0.03 0.05 0.05 96 1011.1
20260831101433 70 38 3.0 6.0 0.03 0.05 0.05 96 1011.1
20260831100701 70 74 3.0 6.0 0.03 0.05 0.05 96 1011.2
20260831100203 70 94 4.0 7.0 0.03 0.05 0.05 96 1011.2
20260831095927 70 93 4.0 7.0 0.03 0.05 0.05 96 1011.3
20260831095155 70 102 3.0 6.0 0.03 0.05 0.05 96 1011.5
20260831094928 71 116 3.0 4.0 0.03 0.05 0.05 96 1011.4
20260831094155 71 108 3.0 4.0 0.03 0.05 0.05 96 1011.5
20260831093659 70 119 0.0 2.0 0.03 0.05 0.05 96 1011.8
20260831093654 71 111 1.0 4.0 0.03 0.05 0.05 96 1011.7
20260831092923 70 119 0.0 2.0 0.03 0.05 0.05 96 1012.0
20260831092424 70 120 0.0 2.0 0.00 0.02 0.02 96 1012.2
20260831091652 70 120 1.0 2.0 0.00 0.02 0.02 96 1012.1
20260831091153 70 136 1.0 4.0 0.00 0.02 0.02 96 1012.1
20260831090652 70 135 2.0 5.0 0.00 0.02 0.02 96 1012.0
20260831090153 70 130 3.0 5.0 0.00 0.02 0.02 96 1011.7
20260831085653 70 130 3.0 7.0 0.00 0.02 0.02 96 1011.9
20260831085150 70 138 3.0 7.0 0.00 0.02 0.02 96 1011.8
20260831084648 70 137 3.0 7.0 0.00 0.02 0.02 96 1011.7
20260831084148 70 129 3.0 7.0 0.00 0.02 0.02 96 1011.9
20260831083650 70 132 3.0 7.0 0.00 0.02 0.02 96 1011.9
20260831083419 70 132 2.0 5.0 0.00 0.02 0.02 96 1012.0
20260831082646 70 119 2.0 5.0 0.01 0.02 0.02 96 1012.0
20260831082146 70 136 2.0 4.0 0.01 0.02 0.02 96 1012.0
20260831081646 70 138 2.0 4.0 0.01 0.02 0.02 96 1012.1
20260831081142 70 131 2.0 4.0 0.01 0.02 0.02 96 1012.1
20260831080645 70 131 2.0 7.0 0.01 0.02 0.02 96 1012.1
20260831080143 70 142 2.0 7.0 0.01 0.02 0.02 96 1012.1
20260831075911 70 119 2.0 5.0 0.01 0.02 0.02 96 1011.9
20260831075140 70 134 2.0 5.0 0.01 0.02 0.02 96 1011.9
20260831074639 70 129 2.0 5.0 0.01 0.02 0.02 96 1011.9
20260831074137 70 128 2.0 5.0 0.01 0.02 0.02 96 1011.9
20260831073636 70 126 1.0 5.0 0.01 0.02 0.02 96 1012.0
20260831073410 70 134 1.0 4.0 0.01 0.02 0.02 96 1012.1
20260831072634 70 129 1.0 4.0 0.00 0.01 0.01 95 1012.2
20260831072138 70 128 2.0 6.0 0.00 0.01 0.01 95 1012.0
20260831072133 70 128 1.0 4.0 0.00 0.01 0.01 95 1012.1
20260831071128 70 126 2.0 6.0 0.00 0.01 0.01 95 1012.1
20260831070629 71 115 2.0 4.0 0.00 0.01 0.01 95 1012.2
20260831070128 71 115 3.0 4.0 0.00 0.01 0.01 95 1012.3
20260831065624 71 124 2.0 4.0 0.00 0.01 0.01 95 1012.3
20260831065123 71 128 2.0 5.0 0.01 0.01 0.01 95 1012.5
20260831064623 71 132 2.0 5.0 0.01 0.01 0.01 95 1012.7
20260831064123 71 159 1.0 4.0 0.01 0.01 0.01 95 1012.8
20260831063850 71 159 1.0 4.0 0.01 0.01 0.01 95 1013.0
20260831063119 71 179 1.0 3.0 0.01 0.01 0.01 95 1013.3
20260831062620 71 183 1.0 3.0 0.01 0.01 0.01 95 1013.5
20260831062116 71 183 0.0 3.0 0.01 0.01 0.01 95 1013.7
20260831061617 71 183 0.0 1.0 0.01 0.01 0.01 94 1013.6
20260831061116 71 183 1.0 2.0 0.01 0.01 0.01 94 1013.6
20260831060612 72 183 1.0 2.0 0.01 0.01 0.01 94 1013.5
20260831060114 72 183 0.0 2.0 0.01 0.01 0.01 94 1013.7
20260831055843 72 183 0.0 2.0 0.01 0.01 0.01 94 1013.6
20260831055110 72 183 1.0 3.0 0.00 0.00 0.00 94 1013.5
20260831054609 72 184 1.0 3.0 0.00 0.00 0.00 94 1013.6
20260831054108 72 184 1.0 2.0 0.00 0.00 0.00 94 1013.6
20260831053606 72 184 0.0 2.0 0.00 0.00 0.00 94 1013.5
20260831053107 72 184 0.0 3.0 0.00 0.00 0.00 94 1013.6
20260831052608 72 184 0.0 3.0 0.00 0.00 0.00 94 1013.5
20260831052104 72 167 0.0 3.0 0.00 0.00 0.00 94 1013.5
20260831051604 72 166 1.0 3.0 0.00 0.00 0.00 94 1013.5
20260831051103 72 166 1.0 4.0 0.00 0.00 0.00 93 1013.7
20260831051058 72 166 1.0 4.0 0.00 0.00 0.00 93 1013.6
20260831050058 72 165 0.0 4.0 0.00 0.00 0.00 93 1013.6
20260831045556 72 164 0.0 4.0 0.00 0.00 0.00 93 1013.5
20260831045056 72 163 0.0 2.0 0.00 0.00 0.00 93 1013.5
20260831044557 72 169 0.0 2.0 0.00 0.00 0.00 93 1013.4
20260831044053 72 169 0.0 2.0 0.00 0.00 0.00 92 1013.5
20260831043552 72 169 1.0 5.0 0.00 0.00 0.00 92 1013.3
20260831043052 72 169 1.0 5.0 0.00 0.00 0.00 92 1013.2
20260831042552 72 169 0.0 4.0 0.00 0.00 0.00 92 1013.2
20260831042050 72 142 1.0 3.0 0.00 0.00 0.00 92 1013.0
20260831041550 73 142 1.0 4.0 0.00 0.00 0.00 92 1012.9
20260831041049 73 136 1.0 4.0 0.00 0.00 0.00 91 1012.8
20260831040546 73 137 1.0 3.0 0.00 0.00 0.00 91 1012.9
20260831040044 73 136 1.0 5.0 0.00 0.00 0.00 91 1012.9
20260831035544 73 139 1.0 5.0 0.00 0.00 0.00 91 1013.0
20260831035044 73 186 2.0 4.0 0.00 0.00 0.00 90 1013.2
20260831034545 73 182 2.0 4.0 0.00 0.00 0.00 90 1013.2
20260831034038 73 166 2.0 5.0 0.00 0.00 0.00 90 1013.3
20260831033537 73 167 2.0 5.0 0.00 0.00 0.00 90 1013.3
20260831033037 73 103 1.0 3.0 0.00 0.00 0.00 90 1013.2
20260831032536 73 100 1.0 4.0 0.00 0.00 0.00 90 1013.2
20260831032306 73 93 1.0 4.0 0.00 0.00 0.00 90 1013.1
20260831031532 73 84 1.0 3.0 0.00 0.00 0.00 90 1013.0
20260831031030 73 84 0.0 3.0 0.00 0.00 0.00 90 1013.1
20260831030531 73 84 0.0 1.0 0.00 0.00 0.00 89 1013.0
20260831030027 73 84 0.0 0.0 0.00 0.00 0.00 89 1012.8
20260831025758 73 84 0.0 3.0 0.00 0.00 0.00 89 1012.8
20260831025024 73 84 0.0 3.0 0.00 0.00 0.00 89 1012.9
20260831024522 73 84 0.0 3.0 0.00 0.00 0.00 89 1012.8
20260831024022 73 83 1.0 3.0 0.00 0.00 0.00 89 1012.8
20260831023523 73 83 1.0 3.0 0.00 0.00 0.00 88 1012.7
20260831023251 73 83 1.0 3.0 0.00 0.00 0.00 88 1012.7
20260831022516 73 83 1.0 4.0 0.00 0.00 0.00 88 1012.7
20260831022017 74 82 1.0 4.0 0.00 0.00 0.00 88 1012.7
20260831021516 74 69 1.0 3.0 0.00 0.00 0.00 88 1012.7
20260831021015 74 69 0.0 2.0 0.00 0.00 0.00 88 1012.9
20260831020513 74 69 1.0 2.0 0.00 0.00 0.00 88 1012.8
20260831020244 74 69 1.0 4.0 0.00 0.00 0.00 88 1012.8
20260831015509 74 69 2.0 4.0 0.00 0.00 0.00 88 1012.8
20260831015003 74 66 2.0 5.0 0.00 0.00 0.00 88 1012.6
20260831014730 74 65 3.0 7.0 0.00 0.00 0.00 89 1012.4
20260831014230 74 70 3.0 7.0 0.00 0.00 0.00 89 1012.5
20260831013458 74 74 3.0 6.0 0.00 0.00 0.00 89 1012.4
20260831012958 74 82 3.0 4.0 0.00 0.00 0.00 89 1012.4
20260831012459 74 80 2.0 4.0 0.00 0.00 0.00 88 1012.5
20260831011959 74 80 2.0 4.0 0.00 0.00 0.00 88 1012.6
20260831011726 74 78 2.0 4.0 0.00 0.00 0.00 88 1012.7
20260831010955 75 71 1.0 4.0 0.00 0.00 0.00 88 1012.6
20260831010455 75 46 0.0 2.0 0.00 0.00 0.00 87 1012.5
20260831005954 75 46 1.0 4.0 0.00 0.00 0.00 87 1012.4
20260831005455 75 46 1.0 4.0 0.00 0.00 0.00 87 1012.4
20260831004954 75 51 1.0 3.0 0.00 0.00 0.00 86 1012.2
20260831004457 75 51 2.0 5.0 0.00 0.00 0.00 86 1012.1
20260831003951 75 9 3.0 5.0 0.00 0.00 0.00 86 1012.1
20260831003450 75 19 3.0 6.0 0.00 0.00 0.00 86 1012.1
20260831002950 76 22 3.0 8.0 0.00 0.00 0.00 86 1012.1
20260831002451 76 42 4.0 9.0 0.00 0.00 0.00 85 1012.2
20260831001951 76 34 4.0 10.0 0.00 0.00 0.00 85 1012.1
20260831001447 76 17 4.0 10.0 0.00 0.00 0.00 84 1012.0
20260831001218 76 35 2.0 5.0 0.00 0.00 0.00 83 1012.0
20260831000447 77 51 2.0 6.0 0.00 0.00 0.00 83 1011.9
20260830235946 77 44 2.0 6.0 0.00 0.00 0.00 83 1011.8
20260830235446 77 39 2.0 5.0 0.00 0.00 0.00 83 1012.1
20260830234946 77 36 2.0 5.0 0.00 0.00 0.00 83 1012.0
20260830234442 77 22 3.0 4.0 0.00 0.00 0.00 82 1012.1